Delta Virtual Airport Information Service

Oklahoma City Will Rogers World Airport

ICAO: KOKC Country: United States
Latitude: 35.3931 Longitude: -97.6007
Latest Arrival : SWA3289 (B) (KDEN-KOKC) Latest Departure : DALJUMP (KOKC-KDTW)


WX CaptureLIVE
Data provided by noaa.gov | Fetched at 06:20:16

METAR : KOKC 271052Z 23013KT 10SM CLR 01/M05 A3011 RMK AO2 SLP202 T00111050

TAF : KOKC 271052Z 23013KT 10SM CLR 01/M05 A3011 RMK AO2 SLP202 T00111050


Runway Data for KOKC
Data provided by openaviationdata.com

Runway ID Mag Var Hdg Length Elevation Surface ILS Freq ILS Id ILS Slope
13 7 128° 7801 ft 1295 ft Asphalt -- -- --
17L 7 172° 9817 ft 1295 ft Asphalt 110.9 IEXR 3
17R 7 172° 9816 ft 1295 ft Concrete 110.7 IOKC 3
18 7 172° 3083 ft 1295 ft Asphalt -- -- --
31 7 308° 7801 ft 1295 ft Asphalt -- -- --
35L 7 352° 9816 ft 1295 ft Concrete -- -- --
35R 7 352° 9817 ft 1295 ft Asphalt 110.9 IRGR 2
36 7 352° 3083 ft 1295 ft Asphalt -- -- --

Oklahoma City Will Rogers World Airport, United States
Use only for reference purposes



Not for navigational purposes.